Regional Weather Roundup
Issued by NWS

Home | Current Version | Previous Version | Text Only | Print | Product List | Glossary On
Versions: 1 2 3 4 5 6 7 8 9 10 11 12 13 14 15 16 17 18 19 20 21 22 23 24 25 26 27 28 29 30 31 32 33 34 35 36 37 38 39 40 41 42 43 44 45 46 47 48 49 50
958
ASUS45 KSLC 121810
RWRUT

UTAH REGIONAL WEATHER ROUNDUP
NATIONAL WEATHER SERVICE SALT LAKE CITY UT
1100 AM MST TUE DEC 12 2017

UTZ001>011-023>025-121900-

NORTHERN UTAH

CITY           SKY/WX    TMP DP  RH WIND       PRES   REMARKS
BRIGHAM CITY   CLOUDY    24  22  91 CALM      30.63S VSB 1/2
DUGWAY         SUNNY     28  20  70 VRB1      30.59F
6HR MIN TEMP:   3; 6HR MAX TEMP:  29;

HILL AFB       SUNNY     23  21  93 CALM      30.58F FOG
LOGAN          HAZE      22  15  75 SW5       30.61F VSB 1/4 WCI  16
OGDEN          CLOUDY    27  22  81 VRB3      30.60S HAZE
SALT LAKE CITY FOG       24  22  91 CALM      30.61S VSB 1/4
TOOELE VALLEY  CLOUDY    21  19  93 CALM      30.62S FOG
WENDOVER       CLOUDY    19  17  92 E5        30.63S FOG     WCI  12
HEBER CITY       N/A     32  19  59 CALM      30.54F
WEST JORDAN    CLOUDY    23  23 100 CALM      30.60F VSB 1/4

$$

UTZ011>015-024>027-121900-

CENTRAL/NORTHEAST UTAH

CITY           SKY/WX    TMP DP  RH WIND       PRES   REMARKS
PROVO AIRPORT  SUNNY     27  23  85 MISG      30.59F
MOAB/CANYONLAN SUNNY     38   5  25 NW5       30.52F WCI  34
DELTA          MOSUNNY   30  12  47 CALM      30.56F
PRICE          SUNNY     42   6  22 CALM      30.49F
RICHFIELD      SUNNY     34   3  27 CALM      30.55F
ROOSEVELT      SUNNY     32   9  37 CALM      30.58F
VERNAL         SUNNY     36  10  34 VRB3      30.55F

$$

UTZ013>016-019>022-027-121900-

SOUTHERN UTAH

CITY           SKY/WX    TMP DP  RH WIND       PRES   REMARKS
BRYCE CANYON   SUNNY     47   4  17 CALM      30.54F
CEDAR CITY     SUNNY     38   8  29 CALM      30.51F
MILFORD        SUNNY     30  14  51 CALM      30.55F
ST GEORGE      CLEAR     39   3  22 S5        30.47F
HANKSVILLE     SUNNY     32   3  29 CALM      30.57F
KANAB          SUNNY     57  -2   9 E14       30.49F
BLANDING         N/A     42   5  21 CALM      30.58F

$$

REGIONAL REPORTS     COLORADO/ARIZONA

CITY           SKY/WX    TMP DP  RH WIND       PRES   REMARKS
CRAIG, CO      CLOUDY    28  16  60 CALM      30.53F
GRAND JUNCTION SUNNY     43  10  26 SE6       30.52F
RIFLE, CO      SUNNY     40  13  33 VRB3      30.54F
MONTROSE, CO   SUNNY     41   6  23 S3        30.54F
CORTEZ, CO     SUNNY     43   2  18 S3        30.50F
COLORADO CITY    N/A     50   0  12 CALM      30.47F
PAGE, AZ       SUNNY     40  13  33 CALM      30.51F
GRAND CANYON   SUNNY     54  -1  10 NE14      30.49S
KINGMAN, AZ    SUNNY     56   2  11 N8        30.36F
FLAGSTAFF, AZ  SUNNY     49   2  14 SE10      30.47F

$$

REGIONAL REPORTS    NEVADA/IDAHO/WYOMING

CITY           SKY/WX    TMP DP  RH WIND       PRES   REMARKS
LAS VEGAS, NV  MOSUNNY   57  -5   8 NW3       30.38F
ELY, NY        SUNNY     43   3  19 S6        30.53F
ELKO, NV       MOSUNNY   23  16  74 CALM      30.58F
POCATELLO, ID  CLOUDY    22  19  89 SW5       30.57F WCI  16
BURLEY, ID     FOG       21  17  84 CALM      30.58F VSB 1/2
FORT BRIDGER,    N/A     51  14  22 W10       30.54S
EVANSTON, WY     N/A    N/A N/A N/A MISG      30.52F
ROCK SPRINGS,  SUNNY     39   9  29 W8        30.48F WCI  33

$$




USA.gov is the U.S. government's official web portal to all federal, state and local government web resources and services.